M I D A S
Marine Information and Data Acquisition System
Tripno 1098 of the Zeeleeuw from 2006-03-21 08:03:09 to 2006-03-21 13:01:36
Back to CruiseResearch ActivitiesStationsMapUnderway DataData graphs

EquipmentUnitsComment
TimeDGPSUTC
LatitudeDGPSDM.mWGS84
LongitudeDGPSDM.mWGS84
TemperatureSBE03/SBE38deg celciusITS90
ConductivitySBE21S/mITS90
SalinitySBE21 Practical Salinity Units
ChlorophylAChelsea fluorimeterg/lCalibrated in Aceton
Missing or incorrect values are displayed as -999
Sea surface data collected by the RV Zeeleeuw from 2006-03-21 07:48:32 to 2006-03-21 13:15:32
Time Latitude Longitude Temperature Conductivity Salinity ChlorophylA
2006-03-21 07:49:37 51°13.6 2°56.095 -999 3.594203 26.109064 22.073725
2006-03-21 07:50:37 51°13.599 2°56.095 -999 3.5941 26.108725 22.040016
2006-03-21 07:51:37 51°13.599 2°56.095 -999 3.593893 26.107553 22.006306
2006-03-21 07:52:37 51°13.599 2°56.095 -999 3.593893 26.107553 21.972597
2006-03-21 07:53:37 51°13.597 2°56.094 -999 3.01091 28.208906 20.421965
2006-03-21 07:54:37 51°13.595 2°56.094 -999 2.695255 26.264189 16.916187
2006-03-21 07:55:37 51°13.595 2°56.094 -999 2.674068 26.165923 15.163298
2006-03-21 07:56:37 51°13.593 2°56.097 -999 2.681101 26.666388 14.387982
2006-03-21 07:57:37 51°13.592 2°56.097 -999 2.645759 26.814437 13.983469
2006-03-21 07:58:37 51°13.594 2°56.098 -999 2.638321 27.055271 13.646375
2006-03-21 07:59:37 51°13.595 2°56.098 -999 2.633982 27.166214 13.3767
2006-03-21 08:00:37 51°13.596 2°56.097 -999 2.631915 27.166667 13.073315
2006-03-21 08:01:37 51°13.596 2°56.097 -999 2.632846 27.214758 12.837349
2006-03-21 08:02:37 51°13.596 2°56.097 -999 2.63419 27.266087 12.668802
2006-03-21 08:03:37 51°13.599 2°56.082 -999 2.636877 27.315965 12.533965
2006-03-21 08:04:37 51°13.615 2°56.023 -999 2.623959 27.176063 13.713794
2006-03-21 08:05:37 51°13.641 2°55.931 -999 2.632434 27.325713 13.107024
2006-03-21 08:06:37 51°13.679 2°55.832 -999 2.592543 26.89549 12.871059
2006-03-21 08:07:37 51°13.723 2°55.74 -999 2.608251 27.094663 12.871059
2006-03-21 08:08:37 51°13.724 2°55.748 -999 2.576319 26.741416 13.208153
2006-03-21 08:09:37 51°13.72 2°55.723 -999 2.543769 26.365827 13.241862
2006-03-21 08:10:37 51°13.728 2°55.722 -999 2.558028 26.539988 13.174443
2006-03-21 08:11:37 51°13.72 2°55.708 -999 2.519797 26.097741 13.174443
2006-03-21 08:12:37 51°13.763 2°55.678 -999 2.527959 26.195233 13.34299
2006-03-21 08:13:37 51°13.871 2°55.6 -999 2.539119 26.32614 17.28699
2006-03-21 08:14:37 51°14.001 2°55.505 -999 2.563919 26.617367 18.669076
2006-03-21 08:15:37 51°14.126 2°55.418 -999 2.616726 27.25513 17.185862
2006-03-21 08:16:37 51°14.25 2°55.281 -999 2.602671 27.114355 14.421691
2006-03-21 08:17:37 51°14.337 2°55.106 -999 2.599054 27.075353 13.882341
2006-03-21 08:18:37 51°14.426 2°54.946 -999 2.650418 27.654357 14.152016
2006-03-21 08:19:37 51°14.565 2°54.771 -999 2.747169 28.89504 15.432973
2006-03-21 08:20:37 51°14.729 2°54.583 -999 2.813851 29.717412 14.421691
2006-03-21 08:21:37 51°14.898 2°54.39 -999 2.82481 29.877147 14.4554
2006-03-21 08:22:37 51°15.067 2°54.203 -999 2.829153 29.943005 14.253144
2006-03-21 08:23:37 51°15.24 2°54.021 -999 2.833289 30.007427 14.994751
2006-03-21 08:24:37 51°15.416 2°53.847 -999 2.833909 30.010178 14.286853
2006-03-21 08:25:37 51°15.591 2°53.671 -999 2.835047 30.030649 14.152016
2006-03-21 08:26:37 51°15.765 2°53.492 -999 2.835564 30.051982 13.91605
2006-03-21 08:27:37 51°15.939 2°53.312 -999 2.835253 30.051959 14.084597
2006-03-21 08:28:37 51°16.117 2°53.142 -999 2.846214 30.189119 13.91605
2006-03-21 08:29:37 51°16.298 2°52.993 -999 2.852521 30.272881 13.91605
2006-03-21 08:30:37 51°16.482 2°52.847 -999 2.853348 30.290736 13.949759
2006-03-21 08:31:37 51°16.67 2°52.716 -999 2.85676 30.344338 13.983469
2006-03-21 08:32:37 51°16.864 2°52.606 -999 2.862137 30.390919 13.983469
2006-03-21 08:33:37 51°17.061 2°52.518 -999 2.867721 30.45632 15.197007
2006-03-21 08:34:37 51°17.258 2°52.44 -999 2.869479 30.477827 14.522819
2006-03-21 08:35:37 51°17.459 2°52.401 -999 2.871236 30.497509 14.017178
2006-03-21 08:36:37 51°17.658 2°52.385 -999 2.874649 30.550319 13.882341
2006-03-21 08:37:37 51°17.858 2°52.401 -999 2.878785 30.606161 13.814922
2006-03-21 08:38:37 51°18.052 2°52.437 -999 2.884472 30.67932 13.949759
2006-03-21 08:39:36 51°18.24 2°52.488 -999 2.890676 30.738296 13.848631
2006-03-21 08:40:37 51°18.431 2°52.558 -999 2.891917 30.7381 13.646375
2006-03-21 08:41:37 51°18.619 2°52.639 -999 2.892021 30.741157 13.511537
2006-03-21 08:42:37 51°18.806 2°52.724 -999 2.896054 30.790309 13.477828
2006-03-21 08:43:37 51°18.99 2°52.827 -999 2.895536 30.775936 13.444118
2006-03-21 08:44:37 51°19.156 2°52.973 -999 2.8914 30.727429 13.410409
2006-03-21 08:45:37 51°19.311 2°53.151 -999 2.88654 30.676886 13.444118
2006-03-21 08:46:37 51°19.46 2°53.336 -999 2.884369 30.656022 13.3767
2006-03-21 08:47:37 51°19.609 2°53.524 -999 2.883335 30.647574 13.34299
2006-03-21 08:48:37 51°19.758 2°53.712 -999 2.884679 30.664258 13.34299
2006-03-21 08:49:37 51°19.909 2°53.898 -999 2.885403 30.675508 13.275571
2006-03-21 08:50:37 51°20.062 2°54.085 -999 2.887367 30.697633 13.208153
2006-03-21 08:51:37 51°20.214 2°54.27 -999 2.889746 30.721847 13.107024
2006-03-21 08:52:37 51°20.37 2°54.438 -999 2.894709 30.774538 13.039606
2006-03-21 08:53:37 51°20.555 2°54.543 -999 2.900293 30.834505 12.972187
2006-03-21 08:54:37 51°20.747 2°54.583 -999 2.904947 30.886327 12.972187
2006-03-21 08:55:37 51°20.948 2°54.609 -999 2.910324 30.942937 12.938477
2006-03-21 08:56:37 51°21.145 2°54.636 -999 2.913737 30.98763 12.938477
2006-03-21 08:57:37 51°21.343 2°54.665 -999 2.917253 31.03728 12.938477
2006-03-21 08:58:37 51°21.546 2°54.697 -999 2.921493 31.092671 12.972187
2006-03-21 08:59:37 51°21.746 2°54.731 -999 2.92656 31.154078 12.972187
2006-03-21 09:00:37 51°21.946 2°54.763 -999 2.932144 31.221587 13.005896
2006-03-21 09:01:37 51°22.147 2°54.795 -999 2.936695 31.276961 13.039606
2006-03-21 09:02:37 51°22.347 2°54.825 -999 2.944141 31.367358 13.005896
2006-03-21 09:03:37 51°22.533 2°54.902 -999 2.961205 31.542635 12.871059
2006-03-21 09:04:37 51°22.676 2°55.105 -999 2.967203 31.607529 12.80364
2006-03-21 09:05:37 51°22.805 2°55.321 -999 2.968858 31.631742 12.80364
2006-03-21 09:06:37 51°22.935 2°55.543 -999 2.969375 31.638776 12.76993
2006-03-21 09:07:37 51°23.065 2°55.766 -999 2.970203 31.649463 12.80364
2006-03-21 09:08:37 51°23.196 2°55.989 -999 2.971444 31.663122 12.80364
2006-03-21 09:09:37 51°23.321 2°56.214 -999 2.973099 31.6826 12.837349
2006-03-21 09:10:37 51°23.448 2°56.439 -999 2.973823 31.692073 12.837349
2006-03-21 09:11:37 51°23.572 2°56.666 -999 2.975477 31.712506 12.837349
2006-03-21 09:12:37 51°23.69 2°56.901 -999 2.977856 31.740514 12.80364
2006-03-21 09:13:37 51°23.808 2°57.137 -999 2.982303 31.789074 12.837349
2006-03-21 09:14:37 51°23.927 2°57.374 -999 2.984372 31.816296 12.76993
2006-03-21 09:15:37 51°24.051 2°57.604 -999 2.986751 31.844316 12.702512
2006-03-21 09:16:37 51°24.179 2°57.834 -999 2.988095 31.856334 12.736221
2006-03-21 09:17:37 51°24.305 2°58.063 -999 2.992336 31.901507 12.80364
2006-03-21 09:18:37 51°24.431 2°58.291 -999 3.004437 32.01339 13.578956
2006-03-21 09:19:37 51°24.564 2°58.51 -999 3.010333 32.074178 13.444118
2006-03-21 09:20:37 51°24.697 2°58.727 -999 3.012298 32.093477 13.241862
2006-03-21 09:21:37 51°24.831 2°58.944 -999 3.014159 32.112517 13.241862
2006-03-21 09:22:37 51°24.964 2°59.169 -999 3.015918 32.137072 13.612665
2006-03-21 09:23:37 51°25.097 2°59.397 -999 3.016228 32.13784 14.017178
2006-03-21 09:24:37 51°25.231 2°59.622 -999 3.016745 32.142969 14.253144
2006-03-21 09:25:37 51°25.366 2°59.852 -999 3.016538 32.140532 14.253144
2006-03-21 09:26:37 51°25.499 3°0.081 -999 3.015814 32.131044 14.48911
2006-03-21 09:27:37 51°25.632 3°0.312 -999 3.015711 32.124056 14.219435
2006-03-21 09:28:37 51°25.767 3°0.54 -999 3.015608 32.124761 14.152016
2006-03-21 09:29:37 51°25.909 3°0.751 -999 3.015504 32.123544 14.590238
2006-03-21 09:30:37 51°26.05 3°0.961 -999 3.015918 32.128415 14.725076
2006-03-21 09:31:37 51°26.19 3°1.176 -999 3.016745 32.132388 14.758785
2006-03-21 09:32:37 51°26.324 3°1.395 -999 3.016952 32.137709 14.792494
2006-03-21 09:33:37 51°26.457 3°1.613 -999 3.017159 32.140144 14.826204
2006-03-21 09:34:37 51°26.591 3°1.828 -999 3.017159 32.136298 14.893623
2006-03-21 09:35:37 51°26.724 3°2.04 -999 3.016435 32.13162 14.725076
2006-03-21 09:36:37 51°26.856 3°2.254 -999 3.015608 32.1238 14.556529
2006-03-21 09:37:37 51°26.989 3°2.471 -999 3.015194 32.118929 14.4554
2006-03-21 09:38:37 51°27.119 3°2.687 -999 3.015401 32.123287 14.4554
2006-03-21 09:39:37 51°27.249 3°2.902 -999 3.015504 32.124505 14.421691
2006-03-21 09:40:37 51°27.381 3°3.115 -999 3.015711 32.127902 14.219435
2006-03-21 09:41:37 51°27.514 3°3.335 -999 3.015401 32.126172 14.185725
2006-03-21 09:42:37 51°27.649 3°3.552 -999 3.014677 32.117646 13.983469
2006-03-21 09:43:37 51°27.782 3°3.77 -999 3.013435 32.103031 13.983469
2006-03-21 09:44:37 51°27.913 3°3.987 -999 3.012401 32.096617 14.050888
2006-03-21 09:45:37 51°28.049 3°4.207 -999 3.011574 32.092638 13.983469
2006-03-21 09:46:37 51°28.185 3°4.424 -999 3.012401 32.103345 13.882341
2006-03-21 09:47:37 51°28.315 3°4.639 -999 3.012918 32.103668 13.781212
2006-03-21 09:48:37 51°28.449 3°4.852 -999 3.012815 32.093802 13.646375
2006-03-21 09:49:37 51°28.584 3°5.068 -999 3.013228 32.090989 13.713794
2006-03-21 09:50:37 51°28.713 3°5.285 -999 3.013228 32.090989 13.713794
2006-03-21 09:51:37 51°28.828 3°5.522 -999 3.013435 32.092464 13.680084
2006-03-21 09:52:37 51°28.932 3°5.774 -999 3.014883 32.105667 13.646375
2006-03-21 09:53:37 51°29.038 3°6.028 -999 3.01478 32.099647 13.646375
2006-03-21 09:54:36 51°29.142 3°6.276 -999 3.01809 32.138602 13.545247
2006-03-21 09:55:36 51°29.245 3°6.528 -999 3.018814 32.145201 13.34299
2006-03-21 09:56:36 51°29.353 3°6.779 -999 3.019124 32.150777 13.275571
2006-03-21 09:57:37 51°29.461 3°7.036 -999 3.019331 32.15225 13.309281
2006-03-21 09:58:37 51°29.566 3°7.287 -999 3.018504 32.143472 13.241862
2006-03-21 09:59:36 51°29.668 3°7.535 -999 3.018297 32.14296 13.174443
2006-03-21 10:00:37 51°29.776 3°7.792 -999 3.017986 32.13354 13.140734
2006-03-21 10:01:37 51°29.882 3°8.048 -999 3.016228 32.113807 13.174443
2006-03-21 10:02:37 51°29.988 3°8.3 -999 3.014056 32.085368 13.208153
2006-03-21 10:03:37 51°30.085 3°8.561 -999 3.014883 32.094144 13.309281
2006-03-21 10:04:36 51°30.153 3°8.796 -999 3.015607 32.096904 13.34299
2006-03-21 10:05:36 51°30.177 3°8.894 -999 3.015504 32.094727 13.241862
2006-03-21 10:06:36 51°30.189 3°8.93 -999 3.015918 32.101514 13.174443
2006-03-21 10:07:36 51°30.195 3°8.941 -999 3.01509 32.082186 13.140734
2006-03-21 10:08:36 51°30.186 3°8.934 -999 3.01478 32.073743 13.208153
2006-03-21 10:09:36 51°30.171 3°8.938 -999 3.016435 32.08745 13.174443
2006-03-21 10:10:36 51°30.12 3°8.949 -999 3.0154 32.077206 13.275571
2006-03-21 10:11:37 51°30.047 3°8.885 -999 3.013642 32.062281 13.309281
2006-03-21 10:12:36 51°29.979 3°8.771 -999 3.012711 32.052294 13.3767
2006-03-21 10:13:37 51°29.912 3°8.637 -999 3.013642 32.066115 13.309281
2006-03-21 10:14:36 51°29.841 3°8.51 -999 3.010435 32.027453 13.275571
2006-03-21 10:15:36 51°29.772 3°8.376 -999 3.011056 32.037623 13.309281
2006-03-21 10:16:36 51°29.705 3°8.246 -999 3.012608 32.05491 13.275571
2006-03-21 10:17:36 51°29.663 3°8.153 -999 3.010435 32.030325 13.275571
2006-03-21 10:18:37 51°29.642 3°8.115 -999 3.010849 32.034233 13.578956
2006-03-21 10:19:37 51°29.622 3°8.062 -999 3.012504 32.052735 13.275571
2006-03-21 10:20:37 51°29.584 3°7.933 -999 3.014469 32.074888 13.208153
2006-03-21 10:21:36 51°29.505 3°7.788 -999 3.015504 32.076505 13.140734
2006-03-21 10:22:36 51°29.431 3°7.654 -999 3.014676 32.078279 13.107024
2006-03-21 10:23:37 51°29.361 3°7.524 -999 3.013745 32.060623 13.039606
2006-03-21 10:24:36 51°29.3 3°7.391 -999 3.015607 32.085391 13.039606
2006-03-21 10:25:37 51°29.23 3°7.269 -999 3.015607 32.08635 13.039606
2006-03-21 10:26:37 51°29.181 3°7.179 -999 3.014987 32.083847 13.073315
2006-03-21 10:27:36 51°29.154 3°7.13 -999 3.015711 32.091404 13.275571
2006-03-21 10:28:36 51°29.126 3°7.071 -999 3.016745 32.100691 13.039606
2006-03-21 10:29:37 51°29.08 3°6.966 -999 3.015917 32.091918 13.039606
2006-03-21 10:30:37 51°29.011 3°6.81 -999 3.015607 32.093065 13.140734
2006-03-21 10:31:37 51°28.931 3°6.611 -999 3.016848 32.101907 13.073315
2006-03-21 10:32:37 51°28.852 3°6.407 -999 3.017572 32.109463 13.140734
2006-03-21 10:33:37 51°28.791 3°6.248 -999 3.017986 32.113369 13.005896
2006-03-21 10:34:37 51°28.737 3°6.128 -999 3.016848 32.103826 13.039606
2006-03-21 10:35:37 51°28.708 3°6.067 -999 3.018296 32.118939 13.073315
2006-03-21 10:36:37 51°28.683 3°6.022 -999 3.017883 32.117913 13.174443
2006-03-21 10:37:37 51°28.657 3°5.969 -999 3.017262 32.102935 13.005896
2006-03-21 10:38:37 51°28.633 3°5.912 -999 3.017469 32.111126 13.107024
2006-03-21 10:39:37 51°28.616 3°5.841 -999 3.017883 32.108314 13.005896
2006-03-21 10:40:37 51°28.66 3°5.79 -999 3.019227 32.124127 13.073315
2006-03-21 10:41:37 51°28.674 3°5.896 -999 3.01902 32.123614 12.972187
2006-03-21 10:42:36 51°28.693 3°5.961 -999 3.019848 32.124705 13.005896
2006-03-21 10:43:37 51°28.729 3°6.007 -999 3.0184 32.114396 12.972187
2006-03-21 10:44:36 51°28.734 3°6.005 -999 3.017676 32.105881 12.904768
2006-03-21 10:45:37 51°28.727 3°5.985 -999 3.017676 32.100125 12.80364
2006-03-21 10:46:37 51°28.744 3°5.933 -999 3.01902 32.122654 13.005896
2006-03-21 10:47:37 51°28.72 3°5.78 -999 3.017779 32.105179 12.972187
2006-03-21 10:48:37 51°28.629 3°5.594 -999 3.01902 32.117855 13.174443
2006-03-21 10:49:37 51°28.517 3°5.35 -999 3.014056 32.061397 13.039606
2006-03-21 10:50:37 51°28.394 3°5.082 -999 3.018503 32.112733 13.039606
2006-03-21 10:51:37 51°28.268 3°4.806 -999 3.015917 32.084245 13.107024
2006-03-21 10:52:36 51°28.142 3°4.537 -999 3.0154 32.070497 13.073315
2006-03-21 10:53:36 51°28.013 3°4.268 -999 3.020158 32.136036 13.410409
2006-03-21 10:54:37 51°27.878 3°3.996 -999 3.020572 32.127459 13.275571
2006-03-21 10:55:36 51°27.745 3°3.74 -999 3.017986 32.11241 13.477828
2006-03-21 10:56:37 51°27.608 3°3.471 -999 3.016538 32.098258 13.578956
2006-03-21 10:57:37 51°27.476 3°3.204 -999 3.015504 32.090889 13.511537
2006-03-21 10:58:36 51°27.342 3°2.942 -999 3.016021 32.094094 13.444118
2006-03-21 10:59:37 51°27.204 3°2.668 -999 3.016538 32.102096 13.3767
2006-03-21 11:00:36 51°27.075 3°2.399 -999 3.016331 32.107342 13.545247
2006-03-21 11:01:37 51°26.94 3°2.123 -999 3.016642 32.112913 13.680084
2006-03-21 11:02:37 51°26.806 3°1.852 -999 3.016331 32.112143 13.91605
2006-03-21 11:03:37 51°26.673 3°1.578 -999 3.016538 32.109776 13.882341
2006-03-21 11:04:37 51°26.538 3°1.314 -999 3.016952 32.112723 14.017178
2006-03-21 11:05:36 51°26.408 3°1.052 -999 3.01809 32.121307 13.882341
2006-03-21 11:06:37 51°26.272 3°0.784 -999 3.019434 32.128481 13.848631
2006-03-21 11:07:36 51°26.139 3°0.528 -999 3.019538 32.133539 13.91605
2006-03-21 11:08:37 51°26.007 3°0.266 -999 3.019951 32.135524 13.983469
2006-03-21 11:09:37 51°25.871 3°0.026 -999 3.019951 32.136484 14.084597
2006-03-21 11:10:37 51°25.729 2°59.792 -999 3.020055 32.137701 14.185725
2006-03-21 11:11:37 51°25.575 2°59.581 -999 3.020572 32.140902 14.118306
2006-03-21 11:12:36 51°25.418 2°59.382 -999 3.020675 32.145001 14.219435
2006-03-21 11:13:37 51°25.258 2°59.17 -999 3.021399 32.148713 14.387982
2006-03-21 11:14:37 51°25.102 2°58.964 -999 3.022537 32.15729 14.522819
2006-03-21 11:15:37 51°24.945 2°58.76 -999 3.022744 32.161645 14.354272
2006-03-21 11:16:37 51°24.791 2°58.558 -999 3.022537 32.162096 14.050888
2006-03-21 11:17:36 51°24.641 2°58.361 -999 3.022227 32.16229 14.118306
2006-03-21 11:18:36 51°24.489 2°58.159 -999 3.022123 32.157229 13.983469
2006-03-21 11:19:37 51°24.35 2°57.95 -999 3.021503 32.148969 14.017178
2006-03-21 11:20:37 51°24.249 2°57.724 -999 3.021606 32.144422 14.050888
2006-03-21 11:21:37 51°24.149 2°57.496 -999 3.021089 32.142182 14.152016
2006-03-21 11:22:37 51°24.049 2°57.271 -999 3.020469 32.138725 14.219435
2006-03-21 11:23:37 51°23.949 2°57.046 -999 3.020572 32.139942 14.253144
2006-03-21 11:24:37 51°23.847 2°56.82 -999 3.020572 32.139942 14.118306
2006-03-21 11:25:36 51°23.746 2°56.598 -999 3.020675 32.142119 14.320563
2006-03-21 11:26:36 51°23.645 2°56.375 -999 3.020986 32.142886 14.152016
2006-03-21 11:27:36 51°23.551 2°56.144 -999 3.02171 32.147559 14.118306
2006-03-21 11:28:36 51°23.458 2°55.917 -999 3.021813 32.149736 14.118306
2006-03-21 11:29:37 51°23.363 2°55.672 -999 3.022123 32.148582 14.185725
2006-03-21 11:30:37 51°23.27 2°55.421 -999 3.02202 32.144485 14.017178
2006-03-21 11:31:37 51°23.168 2°55.147 -999 3.020986 32.132324 13.983469
2006-03-21 11:32:37 51°23.058 2°54.855 -999 3.019227 32.11453 13.848631
2006-03-21 11:33:37 51°22.951 2°54.55 -999 3.016641 32.086047 13.646375
2006-03-21 11:34:37 51°22.843 2°54.25 -999 3.01571 32.07702 13.949759
2006-03-21 11:35:36 51°22.737 2°53.965 -999 3.017158 32.089251 13.882341
2006-03-21 11:36:37 51°22.675 2°53.779 -999 3.017572 32.094114 13.680084
2006-03-21 11:37:36 51°22.629 2°53.66 -999 3.016952 32.090654 13.511537
2006-03-21 11:38:37 51°22.589 2°53.558 -999 3.016538 32.088666 13.444118
2006-03-21 11:39:36 51°22.552 2°53.493 -999 3.016331 32.084316 13.34299
2006-03-21 11:40:37 51°22.546 2°53.476 -999 3.016331 32.078565 13.578956
2006-03-21 11:41:36 51°22.53 2°53.448 -999 3.016434 32.080739 13.241862
2006-03-21 11:42:36 51°22.483 2°53.337 -999 3.016228 32.081183 13.275571
2006-03-21 11:43:37 51°22.449 2°53.202 -999 3.016228 32.076391 13.174443
2006-03-21 11:44:37 51°22.42 2°53.053 -999 3.015193 32.068065 13.039606
2006-03-21 11:45:37 51°22.368 2°52.871 -999 3.013538 32.052443 13.005896
2006-03-21 11:46:37 51°22.334 2°52.743 -999 3.013021 32.041576 12.938477
2006-03-21 11:47:38 51°22.309 2°52.711 -999 3.011056 32.02422 12.938477
2006-03-21 11:48:38 51°22.282 2°52.704 -999 3.010539 32.021012 13.005896
2006-03-21 11:49:37 51°22.255 2°52.67 -999 3.010229 32.020235 12.972187
2006-03-21 11:50:37 51°22.225 2°52.536 -999 3.010435 32.018839 13.005896
2006-03-21 11:51:37 51°22.158 2°52.375 -999 3.009298 32.006422 12.938477
2006-03-21 11:52:38 51°22.086 2°52.198 -999 3.007643 31.98697 12.938477
2006-03-21 11:53:37 51°22.045 2°52.092 -999 3.005678 31.967694 12.871059
2006-03-21 11:54:38 51°22.026 2°52.076 -999 3.004953 31.958229 13.005896
2006-03-21 11:55:37 51°22 2°52.039 -999 3.004643 31.956493 12.871059
2006-03-21 11:56:38 51°21.969 2°51.955 -999 3.005471 31.958577 12.837349
2006-03-21 11:57:37 51°21.927 2°51.812 -999 3.004436 31.950241 12.904768
2006-03-21 11:58:37 51°21.855 2°51.663 -999 3.003402 31.94286 12.938477
2006-03-21 11:59:38 51°21.778 2°51.528 -999 3.001437 31.925489 13.039606
2006-03-21 12:00:37 51°21.745 2°51.474 -999 3.000299 31.914979 13.073315
2006-03-21 12:01:37 51°21.723 2°51.445 -999 2.999472 31.902391 13.073315
2006-03-21 12:02:37 51°21.697 2°51.41 -999 2.999472 31.903345 13.039606
2006-03-21 12:03:37 51°21.665 2°51.4 -999 2.999265 31.896146 13.005896
2006-03-21 12:04:37 51°21.638 2°51.38 -999 2.999265 31.897099 12.938477
2006-03-21 12:05:37 51°21.607 2°51.302 -999 3.000299 31.906393 12.938477
2006-03-21 12:06:37 51°21.548 2°51.164 -999 3.000092 31.901102 12.972187
2006-03-21 12:07:38 51°21.473 2°51.009 -999 2.998127 31.884682 13.073315
2006-03-21 12:08:37 51°21.391 2°50.861 -999 2.996783 31.872693 13.073315
2006-03-21 12:09:37 51°21.343 2°50.776 -999 2.996679 31.866714 13.073315
2006-03-21 12:10:38 51°21.333 2°50.755 -999 2.994507 31.848809 13.578956
2006-03-21 12:11:38 51°21.311 2°50.72 -999 2.993783 31.845062 13.241862
2006-03-21 12:12:37 51°21.269 2°50.664 -999 2.993473 31.840463 13.241862
2006-03-21 12:13:37 51°21.21 2°50.575 -999 2.994507 31.846905 13.174443
2006-03-21 12:14:37 51°21.148 2°50.478 -999 2.993783 31.836493 13.208153
2006-03-21 12:15:37 51°21.087 2°50.366 -999 2.99399 31.84178 13.275571
2006-03-21 12:16:37 51°21.028 2°50.253 -999 2.993266 31.82566 13.073315
2006-03-21 12:17:37 51°20.999 2°50.19 -999 2.993266 31.824709 13.107024
2006-03-21 12:18:37 51°20.972 2°50.157 -999 2.992438 31.815939 13.646375
2006-03-21 12:19:38 51°20.945 2°50.109 -999 2.99368 31.831472 13.174443
2006-03-21 12:20:37 51°20.905 2°49.996 -999 2.992852 31.8208 13.410409
2006-03-21 12:21:37 51°20.823 2°49.871 -999 2.992542 31.814302 13.107024
2006-03-21 12:22:37 51°20.719 2°49.751 -999 2.989439 31.788307 13.174443
2006-03-21 12:23:37 51°20.61 2°49.631 -999 2.98644 31.75402 12.904768
2006-03-21 12:24:37 51°20.552 2°49.547 -999 2.984061 31.737464 13.005896
2006-03-21 12:25:38 51°20.54 2°49.52 -999 2.96079 31.464189 14.017178
2006-03-21 12:26:38 51°20.52 2°49.48 -999 2.96834 31.557535 13.005896
2006-03-21 12:27:37 51°20.47 2°49.424 -999 2.977338 31.665114 13.005896
2006-03-21 12:28:37 51°20.362 2°49.482 -999 2.971857 31.599777 13.039606
2006-03-21 12:29:37 51°20.191 2°49.657 -999 2.975166 31.628244 13.612665
2006-03-21 12:30:38 51°20.007 2°49.841 -999 2.962652 31.500171 13.713794
2006-03-21 12:31:38 51°19.822 2°50.019 -999 2.959653 31.470603 14.084597
2006-03-21 12:32:38 51°19.647 2°50.18 -999 2.949311 31.349183 13.713794
2006-03-21 12:33:38 51°19.5 2°50.312 -999 2.960584 31.47494 13.477828
2006-03-21 12:34:37 51°19.343 2°50.456 -999 2.961825 31.489513 13.511537
2006-03-21 12:35:38 51°19.151 2°50.626 -999 2.962549 31.502727 13.3767
2006-03-21 12:36:37 51°18.963 2°50.792 -999 2.963376 31.508673 26.927879
2006-03-21 12:37:37 51°18.771 2°50.966 -999 2.963583 31.509216 26.422238
2006-03-21 12:38:37 51°18.579 2°51.137 -999 2.963686 31.509488 25.646922
2006-03-21 12:39:37 51°18.388 2°51.315 -999 2.963893 31.503433 24.736768
2006-03-21 12:40:38 51°18.197 2°51.493 -999 2.964203 31.499538 23.894033
2006-03-21 12:41:37 51°18.016 2°51.678 -999 2.964927 31.5005 23.388392
2006-03-21 12:42:38 51°17.827 2°51.866 -999 2.966582 31.509556 23.287264
2006-03-21 12:43:37 51°17.64 2°52.038 -999 2.969581 31.528727 23.320973
2006-03-21 12:44:38 51°17.439 2°52.199 -999 2.973614 31.538354 23.48952
2006-03-21 12:45:37 51°17.235 2°52.325 -999 2.978371 31.540469 23.759195
2006-03-21 12:46:37 51°17.033 2°52.47 -999 2.983232 31.534431 24.231127
2006-03-21 12:47:37 51°16.835 2°52.631 -999 2.988092 31.546211 24.63564
2006-03-21 12:48:37 51°16.634 2°52.786 -999 2.992746 31.565852 24.871606
2006-03-21 12:49:37 51°16.435 2°52.943 -999 2.997297 31.583326 24.972734
2006-03-21 12:50:37 51°16.241 2°53.106 -999 3.001744 31.601441 25.107571
2006-03-21 12:51:38 51°16.046 2°53.272 -999 3.006088 31.609927 25.276118
2006-03-21 12:52:37 51°15.915 2°53.369 -999 3.010224 31.61414 25.444665
2006-03-21 12:53:38 51°15.768 2°53.493 -999 3.014465 31.62514 25.579503
2006-03-21 12:54:37 51°15.592 2°53.67 -999 3.018395 31.636253 25.714341
2006-03-21 12:55:38 51°15.403 2°53.844 -999 3.022532 31.641383 25.815469
2006-03-21 12:56:37 51°15.226 2°54.031 -999 3.026462 31.649691 25.882888
2006-03-21 12:57:37 51°15.042 2°54.208 -999 3.030392 31.648721 25.916597
2006-03-21 12:58:37 51°14.861 2°54.395 -999 3.034426 31.661919 25.916597
2006-03-21 12:59:37 51°14.685 2°54.591 -999 3.038356 31.668357 25.950306
2006-03-21 13:00:37 51°14.515 2°54.798 -999 3.042183 31.676374 25.882888
2006-03-21 13:01:37 51°14.371 2°55.035 -999 3.04601 31.679767 25.916597
2006-03-21 13:02:38 51°14.258 2°55.27 -999 3.049837 31.678556 25.849178
2006-03-21 13:03:38 51°14.133 2°55.404 -999 3.05356 31.685378 25.781759
2006-03-21 13:04:38 51°14.03 2°55.482 -999 3.057284 31.693114 25.714341
2006-03-21 13:05:38 51°13.941 2°55.545 -999 3.061008 31.695332 25.613212
2006-03-21 13:06:38 51°13.861 2°55.604 -999 3.064628 31.700959 25.512084
2006-03-21 13:07:38 51°13.791 2°55.663 -999 3.068351 31.70685 25.410956
2006-03-21 13:08:38 51°13.735 2°55.742 -999 3.072075 31.709075 25.276118
2006-03-21 13:09:38 51°13.686 2°55.829 -999 3.075695 31.71287 25.17499
2006-03-21 13:10:38 51°13.644 2°55.924 -999 3.079419 31.721499 25.073862
2006-03-21 13:11:36 51°13.617 2°56.01 -999 3.083143 31.724643 25.006443
2006-03-21 13:12:38 51°13.605 2°56.069 -999 3.086763 31.724793 24.905315
2006-03-21 13:13:37 51°13.599 2°56.089 -999 3.090383 31.730414 24.804187
2006-03-21 13:14:37 51°13.599 2°56.089 -999 3.094004 31.740579 24.736768